Regional Weather Roundup
Issued by NWS

Home | Current Version | Previous Version | Text Only | Print | Product List | Glossary Off
Versions: 1 2 3 4 5 6 7 8 9 10 11 12 13 14 15 16 17 18 19 20 21 22 23 24 25 26 27 28 29 30 31 32 33 34 35 36 37 38 39 40 41 42 43 44 45 46 47 48 49 50

825
ASUS45 KCYS 072210
RWRWY

WYOMING REGIONAL WEATHER ROUNDUP
NATIONAL WEATHER SERVICE CHEYENNE WY
300 PM MST SUN FEB 07 2016

NOTE:  "FAIR" INDICATES FEW OR NO CLOUDS BELOW 12,000 FEET
WITH NO SIGNIFICANT WEATHER AND/OR OBSTRUCTIONS TO VISIBILITY.

WYZ001-072300-
YELLOWSTONE NATIONAL PARK

CITY           SKY/WX    TMP DP  RH WIND       PRES   REMARKS
LK YELLOWSTONE   N/A     30  10  43 VRB6      30.45R WCI  24
W YELLOWSTONE  NOT AVBL

$$
WYZ002>013-054>058-071-098>099-072300-
NORTHERN WYOMING

CITY           SKY/WX    TMP DP  RH WIND       PRES   REMARKS
JACKSON        NOT AVBL
CODY           FAIR      37  16  41 NE10      30.38R WCI  30
GREYBULL       FAIR      41  11  29 N16G23    30.39R
WORLAND        FAIR      37  12  35 CALM      30.41R
SHERIDAN       PTSUNNY   36   9  32 NW20      30.35F WCI  25
BUFFALO        FAIR      32  13  45 N24G38    30.34R WCI  19
GILLETTE       FAIR      32  11  41 NW32G39   30.32R WCI  17
HULETT         MOCLDY    34  10  37 NW22G35   30.29R WCI  22
NEWCASTLE      FAIR      34   3  27 NW35G49   30.28R WCI  19

$$
WYZ014>020-022>026-101>103-072300-
CENTRAL WYOMING

CITY           SKY/WX    TMP DP  RH WIND       PRES   REMARKS
BIG PINEY      FAIR      36  19  50 N21G29    30.42R WCI  25
PINEDALE       FAIR      32  18  55 W21G28    30.40R WCI  20
DUBOIS         FAIR      34   9  35 NW18G29   30.36S WCI  23
LANDER         FAIR      32  14  47 NE7       30.36R WCI  26
RIVERTON       FAIR      32  14  47 E7        30.37S WCI  26
CASPER         FAIR      30  16  56 W16       30.36R WCI  19
DOUGLAS        CLOUDY    30  14  51 NW21G29     N/A  WCI  17

$$
WYZ021-027>030-104>119-072300-
SOUTHERN WYOMING

CITY           SKY/WX    TMP DP  RH WIND       PRES   REMARKS
EVANSTON       FAIR      31  21  66 SW14      30.51S WCI  21
KEMMERER       FAIR      32  23  69 W30       30.45S WCI  18
FORT BRIDGER   CLEAR     34  23  64 W22       30.52S WCI  22
ROCK SPRINGS   FAIR      33  22  63 W30G38    30.41R WCI  19
DIXON          FAIR      34  19  54 SW9       30.46S WCI  27
RAWLINS        FAIR      32  22  66 W29       30.35S WCI  18
SARATOGA       FAIR      30  23  74 W20G26    30.37S WCI  18
LARAMIE          N/A     31  18  58 NW16      30.25R WCI  20
CHEYENNE       FAIR      31  17  56 N25G38    30.24R WCI  17
TORRINGTON     FAIR      34  13  41 NW26G41   30.30R WCI  21
PINE BLUFFS    MOCLDY    28  19  69 N30       30.27S WCI  13

$$




USA.gov is the U.S. government's official web portal to all federal, state and local government web resources and services.